Location: Agourir
(32.7750°N, 5.2281°W)
Time: 15:30:37
(UTC+00:00)

Daily predictions for brighter satellites

Satellite Brightness Start Highest point End
(mag) Time Altitude Azimuth Time Altitude Azimuth Time Altitude Azimuth
Okean 1-7 Rocket 4.3 18:03:53 10° SSW 18:08:22 61° W 18:12:54 10° N
Cosmos 923 Rocket 4.3 18:03:18 10° N 18:08:24 45° ENE 18:13:26 10° SE
Aureole 3 3.1 18:08:11 10° NNE 18:11:00 37° E 18:13:49 10° SSE
Meteor 2-1 Rocket 4.3 18:05:42 10° N 18:11:07 56° E 18:16:30 10° SSE
Cosmos 1844 Rocket 4.3 18:06:33 10° SW 18:11:40 35° WNW 18:16:47 10° N
Cosmos 1680 Rocket 4.0 18:08:37 10° N 18:13:25 36° ENE 18:18:11 10° SE
Cosmos 1689 Rocket 3.5 18:15:50 10° NE 18:17:55 18° E 18:19:59 10° SE
GOES 2 Rocket 4.4 18:12:56 10° W 18:18:00 54° S 18:24:42 10° ESE
COSMO-SKYMED 1 2.5 18:13:57 10° NNE 18:18:17 71° ESE 18:22:35 10° S
Cosmos 1346 Rocket 4.0 18:20:09 10° SE 18:23:09 21° E 18:26:10 10° NE
Cosmos-2242 4.5 18:22:32 10° NE 18:25:16 16° ENE 18:28:01 10° ESE
H-2A R/B 3.0 18:23:01 10° ESE 18:27:01 24° ENE 18:31:05 10° NNE
Cosmos 1937 Rocket 3.5 18:22:40 10° S 18:27:57 78° ESE 18:33:17 10° NNE
Cosmos 2026 Rocket 4.1 18:22:07 10° SSE 18:28:01 54° E 18:34:02 10° NNE
CREW DRAGON DEMO-1 DEB 3.0 18:27:06 10° NNW 18:29:52 43° NE 18:32:38 10° ESE
Cosmos 1602 Rocket 3.5 18:28:35 10° S 18:32:54 90° ENE 18:37:17 10° N
CZ-4B R/B 2.3 18:31:41 10° N 18:34:52 49° WNW 18:37:56 10° SSW
Cosmos 44 Rocket 4.4 18:31:51 10° SSE 18:35:43 25° ESE 18:38:48 14° ENE
Cosmos 2278 Rocket 2.3 18:30:55 10° S 18:36:28 60° ESE 18:42:03 10° NNE
IRS-1C Rocket 4.2 18:32:25 10° SSE 18:37:28 51° ENE 18:42:33 10° N
YAOGAN 1 3.3 18:34:44 10° SE 18:38:29 30° ENE 18:42:15 10° NNE
Hubble Space Telescope 2.4 18:35:48 10° WSW 18:39:27 30° SSW 18:43:06 10° SE
SJ 16-02 4.1 18:38:28 10° WSW 18:41:13 16° WNW 18:43:58 10° NNW
NOSS 3-1 (C) 4.3 18:37:13 10° NNW 18:44:51 51° NE 18:53:26 10° SE
CZ-4 R/B 4.3 18:41:06 10° SSE 18:45:11 68° ENE 18:49:19 10° N
Okean O Rocket 3.5 18:41:19 10° SSW 18:45:22 35° W 18:49:25 10° NNW
Cosmos 1340 3.2 18:41:47 10° SSW 18:45:27 59° W 18:49:11 10° N
Cosmos 1328 4.2 18:44:19 10° SSW 18:48:17 66° W 18:52:15 10° N
ERS-2 2.1 18:44:55 10° NNE 18:48:34 84° W 18:52:11 10° SSW
Cosmos 1825 Rocket 3.8 18:44:28 10° SSE 18:48:37 47° E 18:52:51 10° NNE
MOS 1 Rocket 3.5 18:45:07 10° N 18:49:21 63° WNW 18:53:41 10° SSW
CZ-3B R/B 4.0 18:48:38 10° N 18:52:13 27° NE 19:02:17 10° ESE
Cosmos 2112 Rocket 3.9 18:47:43 10° NNW 18:52:56 77° ENE 18:58:06 10° SSE
Okean-O 2.8 18:49:17 10° SSE 18:53:31 47° ENE 18:57:46 10° N
BREEZE-M DEB (TANK) 3.2 18:51:34 10° WNW 18:53:48 37° SW 18:56:13 10° SSE
Helios 1A Rocket 3.5 18:52:29 10° SE 18:56:14 34° ENE 19:00:00 10° N
CZ-2D R/B 3.7 18:54:12 10° S 18:58:01 64° W 19:01:50 10° NNW
Cosmos 1812 Rocket 3.5 18:54:38 10° N 18:59:02 90° SE 19:03:20 10° S
Cosmos 1455 4.3 18:56:33 10° NNW 18:59:55 30° W 19:03:17 10° SSW
CZ-2C R/B 3.3 18:56:29 10° S 19:01:47 79° WSW 19:07:24 10° NNW
ARGOS 3.5 18:58:06 10° SE 19:03:02 39° ENE 19:07:59 10° N
Meteor 1-11 4.2 18:57:33 10° S 19:03:16 89° W 19:08:56 10° N
USA 267 4.1 19:00:49 21° E 19:03:48 30° SE 19:09:23 10° S
USA 229 DEB 4.1 18:57:53 10° NNW 19:05:04 48° NE 19:12:29 10° SE
USA 229 4.2 18:58:00 10° NNW 19:05:09 47° NE 19:12:34 10° SE
EXPRESS MD2 3.8 18:59:10 10° NW 19:05:26 67° SW 19:08:10 14° SE
Cosmos 1953 Rocket 3.5 19:09:30 10° S 19:13:46 60° E 19:16:54 18° NNE
Lacrosse 5 3.6 19:10:40 10° WNW 19:15:10 33° WSW 19:19:39 10° S
USA 276 3.2 19:15:06 10° SSW 19:17:26 32° SSE 19:17:26 32° SSE
CZ-2C R/B 2.7 19:14:34 10° NNE 19:20:07 60° E 19:25:38 10° S
NOSS 3-1 (A) 4.3 19:13:08 10° NNW 19:20:53 54° ENE 19:28:51 13° SE
CZ-4 R/B 2.4 19:26:39 10° S 19:30:35 47° W 19:34:29 10° NNW
Iridium 4 Rocket 4.3 19:25:47 10° NNW 19:30:50 50° W 19:35:28 10° SSW
CSL-04 Debris 4.0 19:25:37 10° SSE 19:30:58 74° ENE 19:36:21 10° N
Cosmos 405 4.2 19:30:01 10° NNW 19:33:21 41° W 19:36:39 10° SSW
Aureole 3 Rocket 4.1 19:30:33 10° NNW 19:33:51 42° W 19:38:08 10° SSW
SJ-11-01 4.5 19:29:18 10° S 19:33:57 72° WSW 19:38:38 10° NNW
BREEZE-M DEB (TANK) 4.0 19:35:57 10° SSW 19:36:50 17° SSW 19:36:50 17° SSW
DMSP B5D2-2 4.0 19:41:31 60° ENE 19:42:10 66° ESE 19:47:23 10° S
Cosmos 2292 Rocket 4.2 19:39:16 10° SSW 19:45:09 68° W 19:48:06 22° N
Cosmos 1833 Rocket 2.5 19:39:51 10° NNW 19:45:29 85° ENE 19:48:30 29° SSE
Centaur D-1AR AC-48 3.4 19:38:24 10° WSW 19:45:40 28° SSW 19:47:00 24° SSE
Cosmos 2150 Rocket 4.0 19:43:05 10° SSW 19:48:12 76° WNW 19:49:57 42° N
In-Cosmos 22 Rocket 4.2 19:44:30 10° S 19:50:20 84° W 19:54:19 21° N
Meteor 1-27 4.2 19:45:42 10° N 19:51:17 79° W 19:56:49 10° S
COSMOS 2406 3.5 19:48:59 10° NNW 19:54:43 68° WSW 20:00:22 10° S
Cosmos 2082 Rocket 3.3 19:55:31 10° NNW 19:58:32 31° N 19:58:32 31° N
Cosmos 1943 Rocket 3.9 19:56:34 10° S 19:58:10 19° S 19:58:10 19° S
H-2A R/B 3.8 20:01:53 10° SSW 20:06:14 30° W 20:10:42 10° NW
Cosmos 2266 Rocket 4.0 20:00:30 10° S 20:06:46 76° W 20:10:48 23° N
ATLAS 5 CENTAUR R/B 4.4 19:37:01 10° SSW 20:14:15 69° SE 20:16:55 54° ENE
Cosmos 1125 Rocket 4.2 20:13:39 10° SSW 20:18:15 51° W 20:18:15 51° W
Hubble Space Telescope 3.7 20:18:40 10° SW 20:19:25 11° SW 20:19:25 11° SW
Milstar 3 3.6 20:33:18 10° WSW 20:39:53 45° SSW 20:39:53 45° SSW
USA 267 3.9 20:48:12 52° W 20:48:12 52° W 20:53:21 10° WSW
